SCP
0 0 0 0 0 0 0 0 0 0 0 0 0 0 0 0 0 0 0 0 0 0 0 0 0 0 0 0 0 0 0 0 0 0 0 0 0 0 0 0 0 0 0 0 0 0 0 0 0 0 0 0 0 0
0 0 0 0 0 0 0 0 0 0 0 0 0 0 0 0 0 0 0 0 0 0 0 0 0 0 0 0 0 0 0 0 0 0 0 0 0 0 0 0 0 0 0 0 0 0 0 0 0 0 0 0 0 0
0 0 0 0 0 0 0 0 0 0 0 0 0 0 0 0 0 0 0 0 0 0 0 0 0 0 0 0 0 0 0 0 0 0 0 0 0 0 0 0 0 0 0 0 0 0 0 0 0 0 0 0 0 0
0 0 0 0 0 0 0 0 0 0 0 0 0 0 0 0 0 0 0 0 0 0 0 0 0 0 0 0 0 0 0 0 0 0 0 0 0 0 0 0 0 0 0 0 0 0 0 0 0 0 0 0 0 0
0 0 0 0 0 0 0 0 0 0 0 0 0 0 0 0 0 0 0 0 0 0 0 0 0 0 0 0 0 0 0 0 0 0 0 0 0 0 0 0 0 0 0 0 0 0 0 0 0 0 0 0 0 0
0 0 0 0 0 0 0 0 0 0 0 0 0 0 0 0 0 0 0 0 0 0 0 0 0 0 0 0 0 0 0 0 0 0 0 0 0 0 0 0 0 0 0 0 0 0 0 0 0 0 0 0 0 0
0 0 0 0 0 0 0 0 0 0 0 0 0 0 0 0 0 0 0 0 0 0 0 0 0 0 0 0 0 0 0 0 0 0 0 0 0 0 0 0 0 0 0 0 0 0 0 0 0 0 0 0 0 0
0 0 0 0 0 0 0 0 0 0 0 0 0 0 0 0 0 0 0 0 0 0 0 0 0 0 0 0 0 0 0 0 0 0 0 0 0 0 0 0 0 0 0 0 0 0 0 0 0 0 0 0 0 0
0 0 0 0 0 0 0 0 0 0 0 0 0 0 0 0 0 0 0 0 0 0 0 0 0 0 0 0 0 0 0 0 0 0 0 0 0 0 0 0 0 0 0 0 0 0 0 0 0 0 0 0 0 0
0 0 0 0 0 0 0 0 0 0 0 0 0 0 0 0 0 0 0 0 0 0 0 0 0 0 0 0 0 0 0 0 0 0 0 0 0 0 0 0 0 0 0 0 0 0 0 0 0 0 0 0 0 0
0 0 0 0 0 0 0 0 0 0 0 0 0 0 0 0 0 0 0 0 0 0 0 0 0 0 0 0 0 0 0 0 0 0 0 0 0 0 0 0 0 0 0 0 0 0 0 0 0 0 0 0 0 0
0 0 0 0 0 0 0 0 0 0 0 0 0 0 0 0 0 0 0 0 0 0 0 0 0 0 0 0 0 0 0 0 0 0 0 0 0 0 0 0 0 0 0 0 0 0 0 0 0 0 0 0 0 0
0 0 0 0 0 0 0 0 0 0 0 0 0 0 0 0 0 0 0 0 0 0 0 0 0 0 0 0 0 0 0 0 0 0 0 0 0 0 0 0 0 0 0 0 0 0 0 0 0 0 0 0 0 0
0 0 0 0 0 0 0 0 0 0 0 0 0 0 0 0 0 0 0 0 0 0 0 0 0 0 0 0 0 0 0 0 0 0 0 0 0 0 0 0 0 0 0 0 0 0 0 0 0 0 0 0 0 0
0 -0 0 0 0 0 0 0 0 0 0 0 0 0 0 0 0 0 0 0 0 0 0 0 0 0 0 0 0 0 0 0 0 0 0 0 0 0 0 0 0 0 0 0 0 0 0 0 0 0 0 0 0 0
0 0 0 0 0 0 0 0 0 0 0 0 0 0 0 0 0 0 0 0 0 0 0 0 0 0 0 0 0 0 0 0 0 0 0 0 0 0 0 0 0 0 0 0 0 0 0 0 0 0 0 0 0 0
0 0 0 0 0 0 0 0 0 0 0 0 0 0 0 0 0 0 0 0 0 0 0 0 0 0 0 0 0 0 0 0 0 0 0 0 0 0 0 0 0 0 0 0 0 0 0 0 0 0 0 0 0 0
0 0 0 0 0 0 0 0 0 0 0 0 0 0 0 0 0 0 0 0 0 0 0 0 0 0 0 0 0 0 0 0 0 0 0 0 0 0 0 0 0 0 0 0 0 0 0 0 0 0 0 0 0 0
0 0 0 0 0 0 0 0 0 0 0 0 0 0 0 0 0 0 0 0 0 0 0 0 0 0 0 0 0 0 0 0 0 0 0 0 0 0 0 0 0 0 0 0 0 0 0 0 0 0 0 0 0 0
0 0 0 0 0 0 0 0 0 0 0 0 0 0 0 0 0 0 0 0 0 0 0 0 0 0 0 0 0 0 0 0 0 0 0 0 0 0 0 0 0 0 0 0 0 0 0 0 0 0 0 0 0 0
0 0 0 0 0 0 0 0 0 0 0 0 0 0 0 0 0 0 0 0 0 0 0 0 0 0 0 0 0 0 0 0 0 0 0 0 0 0 0 0 0 0 0 0 0 0 0 0 0 0 0 0 0 0
0 0 0 0 0 0 0 0 0 0 0 0 0 0 0 0 0 0 0 0 0 0 0 0 0 0 0 0 0 0 0 0 0 0 0 0 0 0 0 0 0 0 0 0 0 0 0 0 -0 -0 0 0 0 0
0 0 0 0 0 0 0 0 0 0 0 0 0 0 0 0 0 0 0 0 0 0 0 0 0 0 0 0 0 0 0 0 0 0 0 0 0 0 0 0 0 0 0 0 0 0 0 -0 -0 -0 0 0 0 0
-0 -0 -0 0 0 0 0 0 0 0 0 0 0 0 0 0 0 0 0 0 0 0 0 0 0 0 0 0 0 0 0 0 0 0 0 0 0 0 0 0 0 0 0 0 0 0 -0 -0 -0 0 0 0 0 0
0 -0 -0 0 0 0 0 0 0 0 0 0 0 0 0 0 0 0 0 0 0 0 0 0 0 0 0 0 0 0 0 0 0 0 0 0 0 0 0 0 0 0 0 0 0 -0 -0 0 0 0 0 0 0 0
-0 -0 -0 0 0 0 0 0 0 0 0 0 0 0 0 0 0 0 0 0 0 0 0 0 0 0 0 0 0 0 0 0 0 0 0 0 0 0 0 0 0 0 0 0 0 0 0 0 0 0 0 0 0 0
-0 -0 -0 0 0 0 0 0 0 0 0 0 0 0 0 0 0 0 0 0 0 0 0 0 0 0 0 0 0 0 0 0 0 0 0 0 0 0 0 0 0 0 0 0 0 0 0 0 0 0 0 0 0 0
0 0 0 -0 0 0 0 0 0 0 0 0 0 0 0 0 0 0 0 0 0 0 0 0 0 0 0 0 0 0 0 0 0 0 0 0 0 0 0 0 0 0 0 0 0 0 0 0 0 0 0 0 0 0
0 0 0 0 0 0 0 0 0 0 0 0 0 0 0 0 0 0 0 0 0 0 0 0 0 0 0 0 0 0 0 0 0 0 0 0 0 0 0 0 0 0 0 0 0 0 0 0 0 0 0 0 0 0
0 0 0 0 0 0 0 0 0 0 0 0 0 0 0 0 0 0 0 0 0 0 0 0 0 0 0 0 0 0 0 0 0 0 0 0 0 0 0 0 0 0 0 0 0 0 0 0 0 0 0 0 0 0
0 0 0 0 0 0 0 0 0 0 0 0 0 0 0 0 0 0 0 0 0 0 0 0 0 0 0 0 0 0 0 0 0 0 0 0 0 0 0 0 0 0 0 0 0 0 0 0 0 0 0 0 0 0
0 0 0 0 0 0 0 0 0 0 0 0 0 0 0 0 0 0 0 0 0 0 0 0 0 0 0 0 0 0 0 0 0 0 0 0 0 0 0 0 0 0 0 0 0 0 0 0 0 0 0 0 0 0
0 0 0 0 0 0 0 0 0 0 0 0 0 0 0 0 0 0 0 0 0 0 0 0 0 0 0 0 0 0 0 0 0 0 0 0 0 0 0 0 0 0 0 0 0 0 0 0 0 0 0 0 0 0
Wind_Speed_500mb
46 50 50 49 49 50 45 48 46 51 53 47 60 64 59 58 55 54 63 51 52 22 22 34 34 21 22 30 10 16 11 7 12 12 9 11 10 15 8 16 10 14 11 13 13 21 26 6 12 13 5 10 21 22
54 45 43 50 49 47 49 49 50 53 58 58 51 63 57 64 50 58 55 42 63 37 18 37 51 44 41 30 29 35 11 13 21 12 11 8 8 7 15 12 19 13 19 12 14 13 12 20 23 27 33 41 57 58
42 55 57 50 45 50 54 55 57 58 61 61 60 50 55 58 57 53 58 55 42 48 48 57 57 58 51 54 47 30 22 28 19 26 14 10 16 11 15 21 31 30 53 26 30 34 47 58 63 66 67 64 67 60
52 52 46 45 58 52 50 50 52 54 56 57 58 58 57 59 60 59 63 65 66 23 12 21 25 45 54 57 71 73 58 33 44 32 24 12 13 24 20 22 21 29 20 27 31 42 52 60 69 70 68 66 66 56
53 53 53 51 51 49 53 57 56 54 56 56 56 60 62 61 62 60 68 70 73 66 5 9 33 36 35 41 47 60 68 54 26 16 12 13 26 18 20 18 21 49 41 26 30 53 46 54 65 54 48 59 57 54
49 53 54 55 55 53 49 51 52 54 57 57 57 57 58 63 56 56 51 72 83 72 22 10 24 31 38 42 42 45 57 62 46 18 13 24 53 19 9 18 46 67 70 65 56 71 71 72 71 62 58 59 54 52
53 52 52 48 52 51 51 52 52 53 55 56 59 57 57 56 58 61 11 13 36 76 18 7 8 20 32 26 33 43 47 38 34 25 18 31 35 23 12 30 50 65 67 63 59 58 60 66 49 48 49 47 47 42
52 52 50 54 52 52 52 51 53 57 55 55 56 56 57 56 55 64 74 68 24 65 24 7 6 5 25 16 19 26 22 27 22 20 20 18 20 28 16 29 61 72 69 61 63 54 60 57 52 52 41 41 37 35
46 46 47 47 46 45 47 50 51 51 54 53 53 52 53 61 58 64 60 62 61 44 9 13 14 12 27 17 17 17 19 11 17 12 17 16 12 15 25 50 56 58 52 57 45 39 33 34 36 38 35 36 33 32
40 40 40 40 41 43 43 43 46 47 49 45 44 35 22 46 57 29 25 35 51 40 27 8 37 14 31 27 22 19 14 8 9 13 11 10 25 63 68 53 54 54 48 40 31 29 30 29 29 32 29 30 30 30
33 37 38 37 37 40 42 43 42 39 38 46 27 24 15 26 46 24 19 20 16 11 20 26 41 14 25 11 11 23 9 8 8 9 12 9 13 28 50 59 63 54 44 36 31 32 30 28 25 27 27 28 30 32
34 35 32 31 32 34 36 40 41 39 45 35 21 27 32 24 17 13 11 11 10 11 14 12 22 39 20 14 8 15 10 11 11 11 8 7 14 33 35 38 39 37 34 31 28 28 26 24 24 25 27 29 33 37
34 33 36 38 38 38 43 41 39 44 44 44 15 17 13 17 16 17 16 9 11 12 20 22 12 27 15 17 8 9 16 13 16 11 9 13 14 22 30 31 27 24 24 23 22 21 21 22 23 26 29 32 39 43
36 37 37 41 39 41 40 44 42 39 40 24 17 15 12 10 12 10 15 14 13 22 43 36 17 9 12 13 8 9 5 8 10 10 14 16 19 28 28 25 24 22 20 18 17 17 19 22 26 30 35 39 44 45
31 40 38 36 39 42 43 43 47 49 29 15 15 12 12 3 4 9 14 12 18 27 45 18 10 12 7 9 8 8 11 10 13 14 17 6 18 26 27 24 21 19 17 14 15 18 23 28 33 35 36 40 43 45
4 10 16 24 27 38 42 45 45 54 23 18 5 3 5 6 5 7 12 7 24 32 29 9 8 8 10 7 13 12 12 14 10 5 2 12 22 25 24 22 19 15 12 13 17 21 24 29 34 37 35 36 37 38
5 6 13 15 18 22 34 46 40 29 12 9 5 6 6 5 7 4 15 12 29 23 8 7 15 14 9 8 10 10 11 7 7 6 12 18 25 24 21 16 12 10 10 14 18 21 23 26 28 31 32 29 29 28
18 9 10 8 8 17 36 27 14 8 6 5 3 4 5 4 2 2 7 19 19 13 8 4 9 10 9 13 7 6 6 8 9 15 20 22 21 18 15 12 10 8 9 11 13 14 16 19 22 24 25 24 22 18
27 18 9 14 9 6 2 5 6 7 7 6 10 8 6 4 3 8 10 21 16 10 11 9 6 6 6 1 3 6 13 14 15 21 22 20 16 13 10 9 8 6 3 3 6 9 13 16 18 20 20 17 16 15
22 29 19 14 10 4 6 7 7 8 5 6 7 6 5 2 3 3 7 14 9 6 5 6 2 5 6 4 8 11 20 21 28 27 18 19 16 13 11 9 7 5 4 2 3 7 10 12 15 16 16 15 14 13
22 23 11 8 6 9 10 7 11 8 8 7 7 6 5 4 4 3 3 7 6 2 1 2 3 8 14 18 21 24 24 24 20 13 12 21 19 15 13 12 10 8 5 1 2 5 8 10 12 14 14 15 13 13
8 16 10 9 8 9 12 13 9 6 6 7 6 5 5 2 4 4 2 2 2 1 2 5 14 19 19 18 17 17 16 14 11 8 10 12 21 18 16 13 11 7 5 4 5 6 8 9 11 12 13 14 16 17
15 10 8 8 8 10 6 8 5 7 3 3 4 4 4 2 2 4 4 2 1 2 4 11 19 18 17 16 15 15 15 15 15 16 18 19 19 17 14 11 8 7 5 5 6 6 6 8 9 11 13 15 17 18
11 7 11 11 15 5 4 7 6 5 4 2 3 4 3 3 10 4 2 4 3 3 11 18 20 19 17 17 16 16 16 18 20 21 20 19 16 13 11 9 8 7 7 6 4 3 4 6 9 12 15 17 19 21
6 19 13 11 13 6 7 4 4 2 4 4 2 2 4 8 3 2 4 6 8 3 11 16 18 15 15 17 19 20 22 22 20 17 16 14 12 10 9 8 7 6 6 5 3 4 6 10 13 15 17 19 21 22
15 17 11 8 8 6 5 3 5 5 2 3 4 2 3 2 3 1 5 13 9 4 10 15 16 14 17 19 22 23 20 18 15 11 10 11 12 13 11 11 9 7 6 8 7 8 11 14 16 18 18 20 22 27
10 9 12 13 5 3 4 4 2 2 5 5 3 1 1 4 2 4 11 12 7 4 11 15 16 17 18 21 20 16 14 12 9 7 6 7 8 9 10 11 9 9 9 9 11 14 17 18 20 22 24 24 27 32
8 16 6 15 7 8 4 3 5 5 3 4 3 4 4 4 1 8 8 8 2 12 20 26 24 20 21 18 14 11 10 8 4 2 3 3 4 5 5 5 6 8 10 13 17 19 22 25 28 31 33 35 33 35
8 20 10 6 4 8 8 7 4 4 3 3 4 3 3 4 6 8 9 7 3 15 22 25 23 19 19 17 13 10 7 4 2 1 1 1 3 4 4 5 7 11 15 19 22 26 30 34 37 40 43 45 46 49
13 24 8 5 5 6 5 6 4 7 4 4 4 3 5 8 16 13 9 5 4 9 14 16 17 16 13 11 9 7 3 2 3 5 4 3 3 5 9 13 17 22 27 33 37 39 40 45 48 51 55 58 60 61
16 15 6 5 3 3 9 11 7 5 2 3 4 2 3 6 15 36 34 12 1 6 11 14 14 14 12 9 5 3 1 1 1 2 5 7 9 13 18 23 28 34 39 44 49 53 56 58 60 61 63 64 64 65
14 10 7 6 4 9 8 14 4 3 4 4 6 7 5 6 8 20 40 34 12 5 8 10 10 10 12 11 7 4 3 2 1 5 12 18 24 29 34 39 44 48 53 56 57 57 56 57 58 59 60 60 59 58
8 11 7 7 3 4 14 16 5 2 5 5 8 9 8 7 9 28 36 37 27 16 3 6 8 8 7 7 9 11 7 4 14 24 31 37 43 48 52 55 57 56 55 55 56 56 56 55 55 54 54 54 54 52
Wind_Direction_500mb
243 244 241 243 245 234 236 243 243 234 225 242 241 242 239 242 245 225 225 225 211 212 235 208 206 178 173 190 183 148 134 192 183 211 212 215 239 208 249 241 238 219 236 221 238 257 267 84 130 223 285 139 174 257
245 252 252 247 243 246 244 241 238 241 243 241 238 232 244 224 231 238 237 238 225 218 236 220 235 229 226 230 216 177 200 155 181 202 204 211 201 213 225 241 218 238 237 264 228 243 209 186 250 260 268 276 285 291
245 244 244 251 252 247 245 244 243 239 239 243 239 235 248 230 223 225 234 243 230 224 246 247 235 237 233 229 223 220 228 218 207 199 188 215 233 194 224 227 256 264 255 252 254 251 260 271 272 273 274 277 285 287
245 244 246 248 244 251 258 255 249 243 243 243 241 239 239 241 236 227 227 235 221 238 238 233 232 236 246 243 235 231 235 238 235 217 215 219 224 213 236 245 245 248 281 254 256 258 266 263 265 268 270 273 276 282
250 248 248 247 248 247 247 250 253 253 247 247 243 244 244 242 239 234 234 232 233 212 290 253 241 240 252 247 242 236 230 231 209 205 208 218 236 242 229 254 246 246 251 254 257 260 261 270 277 282 284 283 276 272
252 255 251 248 247 248 251 253 250 251 251 248 249 246 246 241 243 240 236 231 232 224 229 208 247 251 240 226 218 233 229 226 222 215 218 235 242 223 226 239 243 251 259 255 259 260 263 271 278 283 285 280 269 261
249 249 250 253 247 246 247 250 253 253 249 248 245 247 244 241 235 227 214 201 221 216 223 213 210 230 228 207 212 223 228 225 222 233 229 235 232 224 239 246 252 259 262 264 259 264 269 268 276 283 274 268 256 252
249 249 249 243 246 248 250 253 254 253 252 250 243 241 242 239 237 236 244 249 231 197 202 209 179 207 193 174 188 198 199 212 225 229 237 235 247 231 249 246 254 257 264 270 270 265 262 269 269 271 262 254 250 252
248 249 248 247 247 249 249 253 253 252 247 247 246 240 238 229 226 229 237 238 228 204 213 181 191 215 178 181 182 173 196 212 205 220 232 224 226 228 237 245 252 260 264 268 265 271 269 265 266 263 255 254 258 260
244 246 250 249 251 252 252 251 248 245 243 239 232 224 212 217 221 215 210 201 200 206 213 216 195 194 169 177 185 168 187 221 209 225 231 225 240 246 252 259 263 265 263 259 266 272 270 264 258 257 258 259 258 262
245 243 242 243 243 246 248 247 241 239 233 225 218 217 194 168 181 192 212 202 174 198 195 202 197 165 193 169 174 202 181 193 223 211 201 225 243 243 247 245 251 253 257 259 258 260 263 259 248 249 258 264 266 269
242 234 234 240 246 248 244 238 232 223 221 225 215 191 169 178 195 212 192 180 212 201 164 177 186 192 172 167 184 172 192 188 224 137 217 234 239 233 226 226 236 244 250 255 257 253 251 249 252 256 260 266 271 275
240 239 240 245 244 245 245 234 225 225 227 238 242 198 200 170 204 188 184 179 195 152 169 159 159 172 151 179 197 175 203 205 123 189 225 245 221 208 222 228 236 244 247 246 243 242 246 254 261 267 272 277 280 283
253 249 245 248 248 246 240 227 226 217 215 192 205 204 220 177 196 182 214 211 196 179 171 171 138 162 164 179 178 207 122 137 198 218 233 253 232 223 213 219 225 223 221 228 237 249 260 269 274 279 283 283 283 285
261 242 243 247 248 247 239 232 222 218 226 230 195 216 208 123 90 159 180 163 189 176 150 140 131 158 160 193 187 117 169 211 213 229 238 195 210 205 203 202 202 209 214 228 249 267 280 286 290 292 291 290 290 291
293 215 223 240 255 245 235 228 221 218 225 221 258 135 68 172 170 184 191 173 177 163 158 135 141 178 198 189 181 198 182 209 221 182 109 179 175 180 179 180 187 204 226 258 277 287 294 297 300 301 303 300 296 295
283 238 255 275 274 247 215 211 204 190 204 173 123 125 135 353 353 84 157 180 174 173 186 155 188 188 120 192 198 191 211 241 82 163 167 175 170 169 170 180 200 231 268 292 301 306 309 311 312 312 313 311 305 303
7 353 325 290 287 239 207 206 168 133 101 89 159 104 115 128 11 321 168 164 169 185 182 197 122 192 194 184 202 181 109 139 139 149 157 158 163 168 182 203 228 258 281 296 304 312 321 326 326 323 317 317 316 320
321 321 278 245 252 306 101 96 90 97 65 86 101 127 132 151 189 233 220 184 203 189 162 174 199 198 203 265 59 118 163 164 167 158 164 168 181 184 200 225 234 241 269 318 334 343 344 342 338 335 334 334 327 320
258 277 270 240 225 189 103 61 83 93 96 119 112 113 105 97 154 180 190 186 172 201 190 216 191 47 26 148 133 142 147 153 155 146 168 186 194 199 204 202 198 176 149 124 21 2 357 352 352 352 349 343 340 334
237 250 231 197 154 78 80 50 56 78 114 108 98 68 53 89 78 87 114 184 220 269 222 41 110 136 127 124 124 132 140 150 161 177 191 188 192 186 182 179 176 174 170 178 326 338 346 350 354 1 1 356 355 355
176 157 143 137 89 76 77 53 82 78 74 102 91 73 69 63 43 12 301 232 12 205 191 144 150 143 133 132 135 146 156 167 171 176 167 164 169 170 171 178 188 201 231 270 299 314 326 338 344 352 357 359 358 354
126 116 81 71 89 59 51 64 69 42 92 100 120 116 66 50 342 311 245 265 260 252 189 162 156 155 156 151 155 159 160 143 140 140 140 145 150 160 176 193 214 232 252 278 297 309 325 336 347 358 0 360 358 354
102 64 41 45 37 75 58 46 55 77 76 62 91 109 83 353 333 232 251 71 321 179 165 162 157 153 153 156 152 146 140 138 135 139 147 157 169 183 199 216 232 247 254 277 285 314 343 347 350 350 348 348 347 347
90 12 22 23 25 42 51 40 30 59 77 27 58 58 42 349 10 8 327 16 354 173 168 165 162 158 156 152 145 142 144 147 148 158 168 176 185 202 219 235 252 258 252 244 258 303 326 333 336 338 340 342 344 347
67 6 34 354 9 23 16 72 38 50 58 121 55 32 345 259 226 352 5 335 340 227 188 175 166 149 142 147 155 160 160 160 169 181 206 224 230 234 239 246 256 265 257 242 261 292 311 319 324 326 329 331 332 331
60 2 8 28 30 35 90 75 54 354 58 43 22 354 289 83 17 348 346 355 358 124 156 157 144 144 156 163 163 168 175 184 192 206 225 237 250 256 258 261 259 249 252 258 276 293 303 308 312 314 316 317 321 321
73 26 31 341 14 31 102 62 40 48 31 11 306 37 76 52 55 340 346 348 6 160 162 162 159 154 161 167 169 172 175 176 192 253 272 278 288 278 264 257 258 266 274 284 293 300 306 308 309 309 309 310 315 317
34 355 354 357 25 52 41 25 53 49 3 357 327 52 47 38 18 5 360 3 135 167 169 171 170 165 165 168 174 171 164 160 154 201 216 97 56 34 23 348 325 311 304 302 301 303 304 303 303 303 302 304 306 308
1 357 349 12 28 42 15 20 357 336 339 338 317 339 42 53 26 22 14 29 119 169 178 180 186 188 182 186 183 180 191 272 329 340 357 42 10 329 313 308 306 305 304 303 303 301 298 295 294 293 294 295 297 299
345 350 341 15 64 9 345 344 351 6 20 23 22 53 76 102 68 39 29 24 12 181 188 197 200 205 206 206 206 198 247 247 130 327 321 319 316 313 309 307 305 304 303 303 302 301 300 298 296 295 294 293 294 295
346 12 358 0 356 355 8 8 16 53 41 51 25 28 46 68 69 26 11 11 5 254 221 216 212 213 216 221 226 213 187 152 61 343 325 318 314 313 310 309 308 306 304 302 301 301 300 299 299 299 298 298 298 298
331 346 341 328 330 33 355 354 20 91 64 61 36 43 50 71 84 20 5 7 13 11 296 234 232 237 227 197 178 158 151 4 339 332 327 323 318 316 314 313 311 308 304 301 300 300 300 300 300 300 300 301 301 300
Wind_Speed_850mb
46 50 50 49 49 50 45 48 46 51 53 47 60 64 59 58 55 54 63 51 52 22 22 34 34 21 22 30 10 16 11 7 12 12 9 11 10 15 8 16 10 14 11 13 13 21 26 6 12 13 5 10 21 22
54 45 43 50 49 47 49 49 50 53 58 58 51 63 57 64 50 58 55 42 63 37 18 37 51 44 41 30 29 35 11 13 21 12 11 8 8 7 15 12 19 13 19 12 14 13 12 20 23 27 33 41 57 58
42 55 57 50 45 50 54 55 57 58 61 61 60 50 55 58 57 53 58 55 42 48 48 57 57 58 51 54 47 30 22 28 19 26 14 10 16 11 15 21 31 30 53 26 30 34 47 58 63 66 67 64 67 60
52 52 46 45 58 52 50 50 52 54 56 57 58 58 57 59 60 59 63 65 66 23 12 21 25 45 54 57 71 73 58 33 44 32 24 12 13 24 20 22 21 29 20 27 31 42 52 60 69 70 68 66 66 56
53 53 53 51 51 49 53 57 56 54 56 56 56 60 62 61 62 60 68 70 73 66 5 9 33 36 35 41 47 60 68 54 26 16 12 13 26 18 20 18 21 49 41 26 30 53 46 54 65 54 48 59 57 54
49 53 54 55 55 53 49 51 52 54 57 57 57 57 58 63 56 56 51 72 83 72 22 10 24 31 38 42 42 45 57 62 46 18 13 24 53 19 9 18 46 67 70 65 56 71 71 72 71 62 58 59 54 52
53 52 52 48 52 51 51 52 52 53 55 56 59 57 57 56 58 61 11 13 36 76 18 7 8 20 32 26 33 43 47 38 34 25 18 31 35 23 12 30 50 65 67 63 59 58 60 66 49 48 49 47 47 42
52 52 50 54 52 52 52 51 53 57 55 55 56 56 57 56 55 64 74 68 24 65 24 7 6 5 25 16 19 26 22 27 22 20 20 18 20 28 16 29 61 72 69 61 63 54 60 57 52 52 41 41 37 35
46 46 47 47 46 45 47 50 51 51 54 53 53 52 53 61 58 64 60 62 61 44 9 13 14 12 27 17 17 17 19 11 17 12 17 16 12 15 25 50 56 58 52 57 45 39 33 34 36 38 35 36 33 32
40 40 40 40 41 43 43 43 46 47 49 45 44 35 22 46 57 29 25 35 51 40 27 8 37 14 31 27 22 19 14 8 9 13 11 10 25 63 68 53 54 54 48 40 31 29 30 29 29 32 29 30 30 30
33 37 38 37 37 40 42 43 42 39 38 46 27 24 15 26 46 24 19 20 16 11 20 26 41 14 25 11 11 23 9 8 8 9 12 9 13 28 50 59 63 54 44 36 31 32 30 28 25 27 27 28 30 32
34 35 32 31 32 34 36 40 41 39 45 35 21 27 32 24 17 13 11 11 10 11 14 12 22 39 20 14 8 15 10 11 11 11 8 7 14 33 35 38 39 37 34 31 28 28 26 24 24 25 27 29 33 37
34 33 36 38 38 38 43 41 39 44 44 44 15 17 13 17 16 17 16 9 11 12 20 22 12 27 15 17 8 9 16 13 16 11 9 13 14 22 30 31 27 24 24 23 22 21 21 22 23 26 29 32 39 43
36 37 37 41 39 41 40 44 42 39 40 24 17 15 12 10 12 10 15 14 13 22 43 36 17 9 12 13 8 9 5 8 10 10 14 16 19 28 28 25 24 22 20 18 17 17 19 22 26 30 35 39 44 45
31 40 38 36 39 42 43 43 47 49 29 15 15 12 12 3 4 9 14 12 18 27 45 18 10 12 7 9 8 8 11 10 13 14 17 6 18 26 27 24 21 19 17 14 15 18 23 28 33 35 36 40 43 45
4 10 16 24 27 38 42 45 45 54 23 18 5 3 5 6 5 7 12 7 24 32 29 9 8 8 10 7 13 12 12 14 10 5 2 12 22 25 24 22 19 15 12 13 17 21 24 29 34 37 35 36 37 38
5 6 13 15 18 22 34 46 40 29 12 9 5 6 6 5 7 4 15 12 29 23 8 7 15 14 9 8 10 10 11 7 7 6 12 18 25 24 21 16 12 10 10 14 18 21 23 26 28 31 32 29 29 28
18 9 10 8 8 17 36 27 14 8 6 5 3 4 5 4 2 2 7 19 19 13 8 4 9 10 9 13 7 6 6 8 9 15 20 22 21 18 15 12 10 8 9 11 13 14 16 19 22 24 25 24 22 18
27 18 9 14 9 6 2 5 6 7 7 6 10 8 6 4 3 8 10 21 16 10 11 9 6 6 6 1 3 6 13 14 15 21 22 20 16 13 10 9 8 6 3 3 6 9 13 16 18 20 20 17 16 15
22 29 19 14 10 4 6 7 7 8 5 6 7 6 5 2 3 3 7 14 9 6 5 6 2 5 6 4 8 11 20 21 28 27 18 19 16 13 11 9 7 5 4 2 3 7 10 12 15 16 16 15 14 13
22 23 11 8 6 9 10 7 11 8 8 7 7 6 5 4 4 3 3 7 6 2 1 2 3 8 14 18 21 24 24 24 20 13 12 21 19 15 13 12 10 8 5 1 2 5 8 10 12 14 14 15 13 13
8 16 10 9 8 9 12 13 9 6 6 7 6 5 5 2 4 4 2 2 2 1 2 5 14 19 19 18 17 17 16 14 11 8 10 12 21 18 16 13 11 7 5 4 5 6 8 9 11 12 13 14 16 17
15 10 8 8 8 10 6 8 5 7 3 3 4 4 4 2 2 4 4 2 1 2 4 11 19 18 17 16 15 15 15 15 15 16 18 19 19 17 14 11 8 7 5 5 6 6 6 8 9 11 13 15 17 18
11 7 11 11 15 5 4 7 6 5 4 2 3 4 3 3 10 4 2 4 3 3 11 18 20 19 17 17 16 16 16 18 20 21 20 19 16 13 11 9 8 7 7 6 4 3 4 6 9 12 15 17 19 21
6 19 13 11 13 6 7 4 4 2 4 4 2 2 4 8 3 2 4 6 8 3 11 16 18 15 15 17 19 20 22 22 20 17 16 14 12 10 9 8 7 6 6 5 3 4 6 10 13 15 17 19 21 22
15 17 11 8 8 6 5 3 5 5 2 3 4 2 3 2 3 1 5 13 9 4 10 15 16 14 17 19 22 23 20 18 15 11 10 11 12 13 11 11 9 7 6 8 7 8 11 14 16 18 18 20 22 27
10 9 12 13 5 3 4 4 2 2 5 5 3 1 1 4 2 4 11 12 7 4 11 15 16 17 18 21 20 16 14 12 9 7 6 7 8 9 10 11 9 9 9 9 11 14 17 18 20 22 24 24 27 32
8 16 6 15 7 8 4 3 5 5 3 4 3 4 4 4 1 8 8 8 2 12 20 26 24 20 21 18 14 11 10 8 4 2 3 3 4 5 5 5 6 8 10 13 17 19 22 25 28 31 33 35 33 35
8 20 10 6 4 8 8 7 4 4 3 3 4 3 3 4 6 8 9 7 3 15 22 25 23 19 19 17 13 10 7 4 2 1 1 1 3 4 4 5 7 11 15 19 22 26 30 34 37 40 43 45 46 49
13 24 8 5 5 6 5 6 4 7 4 4 4 3 5 8 16 13 9 5 4 9 14 16 17 16 13 11 9 7 3 2 3 5 4 3 3 5 9 13 17 22 27 33 37 39 40 45 48 51 55 58 60 61
16 15 6 5 3 3 9 11 7 5 2 3 4 2 3 6 15 36 34 12 1 6 11 14 14 14 12 9 5 3 1 1 1 2 5 7 9 13 18 23 28 34 39 44 49 53 56 58 60 61 63 64 64 65
14 10 7 6 4 9 8 14 4 3 4 4 6 7 5 6 8 20 40 34 12 5 8 10 10 10 12 11 7 4 3 2 1 5 12 18 24 29 34 39 44 48 53 56 57 57 56 57 58 59 60 60 59 58
8 11 7 7 3 4 14 16 5 2 5 5 8 9 8 7 9 28 36 37 27 16 3 6 8 8 7 7 9 11 7 4 14 24 31 37 43 48 52 55 57 56 55 55 56 56 56 55 55 54 54 54 54 52
Wind_Direction_850mb
243 244 241 243 245 234 236 243 243 234 225 242 241 242 239 242 245 225 225 225 211 212 235 208 206 178 173 190 183 148 134 192 183 211 212 215 239 208 249 241 238 219 236 221 238 257 267 84 130 223 285 139 174 257
245 252 252 247 243 246 244 241 238 241 243 241 238 232 244 224 231 238 237 238 225 218 236 220 235 229 226 230 216 177 200 155 181 202 204 211 201 213 225 241 218 238 237 264 228 243 209 186 250 260 268 276 285 291
245 244 244 251 252 247 245 244 243 239 239 243 239 235 248 230 223 225 234 243 230 224 246 247 235 237 233 229 223 220 228 218 207 199 188 215 233 194 224 227 256 264 255 252 254 251 260 271 272 273 274 277 285 287
245 244 246 248 244 251 258 255 249 243 243 243 241 239 239 241 236 227 227 235 221 238 238 233 232 236 246 243 235 231 235 238 235 217 215 219 224 213 236 245 245 248 281 254 256 258 266 263 265 268 270 273 276 282
250 248 248 247 248 247 247 250 253 253 247 247 243 244 244 242 239 234 234 232 233 212 290 253 241 240 252 247 242 236 230 231 209 205 208 218 236 242 229 254 246 246 251 254 257 260 261 270 277 282 284 283 276 272
252 255 251 248 247 248 251 253 250 251 251 248 249 246 246 241 243 240 236 231 232 224 229 208 247 251 240 226 218 233 229 226 222 215 218 235 242 223 226 239 243 251 259 255 259 260 263 271 278 283 285 280 269 261
249 249 250 253 247 246 247 250 253 253 249 248 245 247 244 241 235 227 214 201 221 216 223 213 210 230 228 207 212 223 228 225 222 233 229 235 232 224 239 246 252 259 262 264 259 264 269 268 276 283 274 268 256 252
249 249 249 243 246 248 250 253 254 253 252 250 243 241 242 239 237 236 244 249 231 197 202 209 179 207 193 174 188 198 199 212 225 229 237 235 247 231 249 246 254 257 264 270 270 265 262 269 269 271 262 254 250 252
248 249 248 247 247 249 249 253 253 252 247 247 246 240 238 229 226 229 237 238 228 204 213 181 191 215 178 181 182 173 196 212 205 220 232 224 226 228 237 245 252 260 264 268 265 271 269 265 266 263 255 254 258 260
244 246 250 249 251 252 252 251 248 245 243 239 232 224 212 217 221 215 210 201 200 206 213 216 195 194 169 177 185 168 187 221 209 225 231 225 240 246 252 259 263 265 263 259 266 272 270 264 258 257 258 259 258 262
245 243 242 243 243 246 248 247 241 239 233 225 218 217 194 168 181 192 212 202 174 198 195 202 197 165 193 169 174 202 181 193 223 211 201 225 243 243 247 245 251 253 257 259 258 260 263 259 248 249 258 264 266 269
242 234 234 240 246 248 244 238 232 223 221 225 215 191 169 178 195 212 192 180 212 201 164 177 186 192 172 167 184 172 192 188 224 137 217 234 239 233 226 226 236 244 250 255 257 253 251 249 252 256 260 266 271 275
240 239 240 245 244 245 245 234 225 225 227 238 242 198 200 170 204 188 184 179 195 152 169 159 159 172 151 179 197 175 203 205 123 189 225 245 221 208 222 228 236 244 247 246 243 242 246 254 261 267 272 277 280 283
253 249 245 248 248 246 240 227 226 217 215 192 205 204 220 177 196 182 214 211 196 179 171 171 138 162 164 179 178 207 122 137 198 218 233 253 232 223 213 219 225 223 221 228 237 249 260 269 274 279 283 283 283 285
261 242 243 247 248 247 239 232 222 218 226 230 195 216 208 123 90 159 180 163 189 176 150 140 131 158 160 193 187 117 169 211 213 229 238 195 210 205 203 202 202 209 214 228 249 267 280 286 290 292 291 290 290 291
293 215 223 240 255 245 235 228 221 218 225 221 258 135 68 172 170 184 191 173 177 163 158 135 141 178 198 189 181 198 182 209 221 182 109 179 175 180 179 180 187 204 226 258 277 287 294 297 300 301 303 300 296 295
283 238 255 275 274 247 215 211 204 190 204 173 123 125 135 353 353 84 157 180 174 173 186 155 188 188 120 192 198 191 211 241 82 163 167 175 170 169 170 180 200 231 268 292 301 306 309 311 312 312 313 311 305 303
7 353 325 290 287 239 207 206 168 133 101 89 159 104 115 128 11 321 168 164 169 185 182 197 122 192 194 184 202 181 109 139 139 149 157 158 163 168 182 203 228 258 281 296 304 312 321 326 326 323 317 317 316 320
321 321 278 245 252 306 101 96 90 97 65 86 101 127 132 151 189 233 220 184 203 189 162 174 199 198 203 265 59 118 163 164 167 158 164 168 181 184 200 225 234 241 269 318 334 343 344 342 338 335 334 334 327 320
258 277 270 240 225 189 103 61 83 93 96 119 112 113 105 97 154 180 190 186 172 201 190 216 191 47 26 148 133 142 147 153 155 146 168 186 194 199 204 202 198 176 149 124 21 2 357 352 352 352 349 343 340 334
237 250 231 197 154 78 80 50 56 78 114 108 98 68 53 89 78 87 114 184 220 269 222 41 110 136 127 124 124 132 140 150 161 177 191 188 192 186 182 179 176 174 170 178 326 338 346 350 354 1 1 356 355 355
176 157 143 137 89 76 77 53 82 78 74 102 91 73 69 63 43 12 301 232 12 205 191 144 150 143 133 132 135 146 156 167 171 176 167 164 169 170 171 178 188 201 231 270 299 314 326 338 344 352 357 359 358 354
126 116 81 71 89 59 51 64 69 42 92 100 120 116 66 50 342 311 245 265 260 252 189 162 156 155 156 151 155 159 160 143 140 140 140 145 150 160 176 193 214 232 252 278 297 309 325 336 347 358 0 360 358 354
102 64 41 45 37 75 58 46 55 77 76 62 91 109 83 353 333 232 251 71 321 179 165 162 157 153 153 156 152 146 140 138 135 139 147 157 169 183 199 216 232 247 254 277 285 314 343 347 350 350 348 348 347 347
90 12 22 23 25 42 51 40 30 59 77 27 58 58 42 349 10 8 327 16 354 173 168 165 162 158 156 152 145 142 144 147 148 158 168 176 185 202 219 235 252 258 252 244 258 303 326 333 336 338 340 342 344 347
67 6 34 354 9 23 16 72 38 50 58 121 55 32 345 259 226 352 5 335 340 227 188 175 166 149 142 147 155 160 160 160 169 181 206 224 230 234 239 246 256 265 257 242 261 292 311 319 324 326 329 331 332 331
60 2 8 28 30 35 90 75 54 354 58 43 22 354 289 83 17 348 346 355 358 124 156 157 144 144 156 163 163 168 175 184 192 206 225 237 250 256 258 261 259 249 252 258 276 293 303 308 312 314 316 317 321 321
73 26 31 341 14 31 102 62 40 48 31 11 306 37 76 52 55 340 346 348 6 160 162 162 159 154 161 167 169 172 175 176 192 253 272 278 288 278 264 257 258 266 274 284 293 300 306 308 309 309 309 310 315 317
34 355 354 357 25 52 41 25 53 49 3 357 327 52 47 38 18 5 360 3 135 167 169 171 170 165 165 168 174 171 164 160 154 201 216 97 56 34 23 348 325 311 304 302 301 303 304 303 303 303 302 304 306 308
1 357 349 12 28 42 15 20 357 336 339 338 317 339 42 53 26 22 14 29 119 169 178 180 186 188 182 186 183 180 191 272 329 340 357 42 10 329 313 308 306 305 304 303 303 301 298 295 294 293 294 295 297 299
345 350 341 15 64 9 345 344 351 6 20 23 22 53 76 102 68 39 29 24 12 181 188 197 200 205 206 206 206 198 247 247 130 327 321 319 316 313 309 307 305 304 303 303 302 301 300 298 296 295 294 293 294 295
346 12 358 0 356 355 8 8 16 53 41 51 25 28 46 68 69 26 11 11 5 254 221 216 212 213 216 221 226 213 187 152 61 343 325 318 314 313 310 309 308 306 304 302 301 301 300 299 299 299 298 298 298 298
331 346 341 328 330 33 355 354 20 91 64 61 36 43 50 71 84 20 5 7 13 11 296 234 232 237 227 197 178 158 151 4 339 332 327 323 318 316 314 313 311 308 304 301 300 300 300 300 300 300 300 301 301 300